Regional Weather Roundup
Issued by NWS

Home | Current Version | Previous Version | Text Only | Print | Product List | Glossary On
Versions: 1 2 3 4 5 6 7 8 9 10 11 12 13 14 15 16 17 18 19 20 21 22 23 24 25 26 27 28 29 30 31 32 33 34 35 36 37 38 39 40 41 42 43 44 45 46 47 48 49 50
000
ASUS43 KTOP 202059
RWRKS

WEATHER ROUNDUP FOR KANSAS
NATIONAL WEATHER SERVICE GOODLAND KS
400 PM CDT WED AUG 20 2014

NOTE:  "FAIR" INDICATES FEW OR NO CLOUDS BELOW 12,000 FEET WITH NO
SIGNIFICANT WEATHER AND/OR OBSTRUCTIONS TO VISIBILITY.

KSZ001>006-013>018-027>032-041>047-202200-
NORTHWEST KANSAS

CITY           SKY/WX    TMP DP  RH WIND       PRES   REMARKS
GOODLAND       PTSUNNY   96  53  23 MISG      29.80F
HAYS           PTSUNNY   97  64  34 S24G31    29.74F HX  99
HILL CITY      CLOUDY    98  64  32 S18G25    29.73F HX 100
RUSSELL        MOSUNNY   96  64  34 S23G33    29.74F HX  98
$$

KSZ061>065-074>080-084>089-202200-
SOUTHWEST KANSAS

CITY           SKY/WX    TMP DP  RH WIND       PRES   REMARKS
DODGE CITY     SUNNY     97  60  29 S23G32    29.80F HX  97
GARDEN CITY    MOSUNNY   94  59  31 S21G31    29.78F
GREAT BEND     MOSUNNY   97  64  34 S21G32    29.77F HX  99
LIBERAL        SUNNY    100  57  23 SW22G28   29.81F HX  99
$$

KSZ066>073-081>083-090>101-202200-
SOUTHEAST KANSAS

CITY           SKY/WX    TMP DP  RH WIND       PRES   REMARKS
CHANUTE        MOSUNNY   94  69  44 S21G26    29.88F HX  99
COFFEYVILLE    SUNNY     93  68  43 S18G28    29.88F HX  97
HUTCHINSON     SUNNY     98  64  32 S22G31    29.79F HX 100
NEWTON         MOSUNNY   93  68  43 S23G31    29.86F HX  97
PARSONS        SUNNY     92  70  48 S13G24    29.90F HX  97
WICHITA INTL   MOSUNNY   96  68  39 S24G33    29.81F HX 101
WICHITA JABRA  SUNNY     93  69  45 S22G30    29.83F HX  98
WINFIELD       SUNNY     95  68  41 S20       29.86F HX  99
$$

KSZ007>012-019>026-033>040-048>060-102>105-202200-
NORTHEAST KANSAS

CITY           SKY/WX    TMP DP  RH WIND       PRES   REMARKS
CONCORDIA      SUNNY     92  71  50 S20G26    29.77F HX  98
EMPORIA        SUNNY     94  69  44 S24       29.83F HX  99
LAWRENCE       PTSUNNY   96  70  42 S14G21    29.82F HX 102
MANHATTAN      SUNNY     97  68  38 S13G24    29.77F HX 102
OLATHE IND     MOSUNNY   94  69  44 S17G24    29.86F HX  99
OLATHE EXE     MOSUNNY   91  70  49 S12G22    29.86F HX  96
SALINA         SUNNY     96  68  39 S20G31    29.77F HX 101
TOPEKA BILLARD MOSUNNY   95  69  42 S12       29.81F HX 100
TOPEKA FORBES  MOSUNNY   96  67  38 S17G25    29.82F HX 100
$$



USA.gov is the U.S. government's official web portal to all federal, state and local government web resources and services.